This is the latest recevied weather packets stored in our database for station/object KK7MLS-13. If no packets are shown the sender has not sent any weather packets the latest 1 day(s).
| Time | Temp. | Humidity | Pressure | Rain* | Wind** | Luminosity | Snow |
|---|---|---|---|---|---|---|---|
| 1778024240 | 17.78° C | 69% | 1016.2 hPa | 0 mm | 0 m/s | 92 W/m² | - |
| 1778023938 | 17.78° C | 67% | 1016.1 hPa | 0 mm | 0 m/s | 97 W/m² | - |
| 1778023635 | 17.78° C | 69% | 1016.2 hPa | 0 mm | 0 m/s | 105 W/m² | - |
| 1778023332 | 17.22° C | 71% | 1016.2 hPa | 0 mm | 0 m/s | 111 W/m² | - |
| 1778023029 | 17.22° C | 69% | 1016.3 hPa | 0 mm | 0 m/s | 107 W/m² | - |
| 1778022728 | 17.78° C | 67% | 1016.3 hPa | 0 mm | 0 m/s | 103 W/m² | - |
| 1778022426 | 17.78° C | 69% | 1016.3 hPa | 0 mm | 0 m/s | 103 W/m² | - |
| 1778022122 | 17.78° C | 68% | 1016.3 hPa | 0 mm | 0 m/s | 104 W/m² | - |
| 1778021818 | 17.78° C | 68% | 1016.2 hPa | 0 mm | 0 m/s | 105 W/m² | - |
| 1778021515 | 17.22° C | 71% | 1016.4 hPa | 0 mm | 0 m/s | 102 W/m² | - |
| 1778021211 | 17.22° C | 72% | 1016.3 hPa | 0 mm | 0 m/s | 99 W/m² | - |
| 1778020909 | 17.78° C | 69% | 1016.5 hPa | 0 mm | 0 m/s | 105 W/m² | - |
| 1778020606 | 17.78° C | 70% | 1016.5 hPa | 0 mm | 0 m/s | 117 W/m² | - |
| 1778020302 | 17.78° C | 69% | 1016.6 hPa | 0 mm | 0 m/s | 124 W/m² | - |
| 1778019998 | 17.22° C | 71% | 1016.5 hPa | 0 mm | 0 m/s | 123 W/m² | - |
| 1778019695 | 17.22° C | 67% | 1016.5 hPa | 0 mm | 0 m/s | 115 W/m² | - |
| 1778019392 | 17.22° C | 68% | 1016.6 hPa | 0 mm | 0 m/s | 109 W/m² | - |
| 1778019088 | 17.78° C | 69% | 1016.6 hPa | 0 mm | 0 m/s | 105 W/m² | - |
| 1778018786 | 17.22° C | 71% | 1016.6 hPa | 0 mm | 0 m/s | 102 W/m² | - |
| 1778018483 | 17.22° C | 71% | 1016.6 hPa | 0 mm | 0 m/s | 99 W/m² | - |
| 1778018181 | 17.22° C | 69% | 1016.6 hPa | 0 mm | 0 m/s | 95 W/m² | - |
| 1778017879 | 17.22° C | 70% | 1016.6 hPa | 0 mm | 0 m/s | 93 W/m² | - |
| 1778017577 | 16.67° C | 70% | 1016.6 hPa | 0 mm | 0 m/s | 96 W/m² | - |
| 1778017274 | 17.22° C | 68% | 1016.5 hPa | 0 mm | 0 m/s | 99 W/m² | - |
| 1778016971 | 17.22° C | 67% | 1016.5 hPa | 0 mm | 0 m/s | 99 W/m² | - |
* Rain latest hour (hover to see other rain measurements)
** Current wind speed in m/s (hover to see current wind gust speed)